STARLINK-4212, 52846

Orbit data source: Space-Track

STARLINK-4212, 52846 is a payload satellite owned by SpaceX/Seattle (US) in LEO that was launched on Fri, 17 Jun 2022 UTC via an FALCON 9 launch vehicle from the Air Force Eastern Test Range (AFETR). Payload-class satellites include a variety of spacecraft equipped with specific instruments for various scientific and technological missions. These include communications satellites like Starlink; space stations such as the ISS; scientific satellites like the Hubble; Earth observation satellites from companies like Planet Labs, Umbra, and HawkEye 360; GPS; miniature CubeSats for education and research; and military/defense satellites.

Loading next visibility...
Identifier
52846, 2022-062S
Orbit
LEO
Country
Flag of USUS
Related business
Manufacturer
SpaceX/Seattle
Mission
Operational Commercial Communications
Bus & Motor
STARLINK, Unknown motor
Mass
297 kg wet, ~275 kg dry
Launch date (UTC)
2022-06-17 (4 years ago)
Launch vehicle
FALCON 9
Launch site
Air Force Eastern Test Range (AFETR)
Object type
Payload
Rocket body
Debris
Shape & HBR
Box + 1 Pan, 10.1 m
Radar Cross Section
13.562 m², Large (>1 m²)

Expand to show TLE details & history
Last TLE update: 2 days ago

TLE from 2 days ago
0 STARLINK-4212
1 52846U 22062S   26171.33117691 -.00000773  00000-0 -30489-4 0  9992
2 52846  53.1594 293.2374 0001035  78.8306 281.2802 15.08838986221289
Epoch: 2026-06-20T07:56Z
TLE epoch observation values (Epoch: 2026-06-20T07:56:53.685Z)
Latitude
0.00002°
Longitude
-94.53361°
Altitude
540.498 km
Speed
7.593 km/s
True Right ascension
19h 32m 56s
True Declination
0° 00' 00"
Sunlit
Object was in full shadow at epoch
Visualization orbit readout
Latitude
Unknown
Longitude
Unknown
Altitude
Unknown
Speed
Unknown
Apparent Right ascension
Unknown
Apparent Declination
Unknown
Sunlit
N/A
Visualization observer readout
Local Sidereal Time
21:34:43
Azimuth
Unknown
Elevation
Unknown
Doppler factor
Unknown
Orbital elements
Apogee altitude
540.717 km
Perigee altitude
539.285 km
Semi-major axis
6,918.138 km
Eccentricity
0.0001
Inclination
53.1594°
RAAN
293.2374°
Arg. of periapsis
78.8306°
True anomaly
281.26857°
Mean anomaly
281.2802°
Eccentric anomaly
281.27438°
Mean motion
3.77189 °/min
Orbital period
95.44 mins
BSTAR
-0.000030489
Loading maneuver chart data...
Computing Atmospheric mass density...
Loading historical data...
Loading historical data...
Loading historical data...
Loading historical data...
Loading historical data...
Loading historical data...
Loading historical data...

Documentation

Showing up to 5 results
|